Weather History for Lemoore NAS, CA

Change the Weather History Date:

Tuesday, August 27, 2013

  Actual Average Record
Temperature  
Mean Temperature 82 °F -  
Max Temperature 98 °F 92 °F 100 °F (1999)
Min Temperature 66 °F 61 °F 54 °F (1998)
Cooling Degree Days 17    
Growing Degree Days 32 (Base 50)    
Moisture  
Dew Point 53 °F    
Average Humidity 39    
Maximum Humidity 60    
Minimum Humidity 23    
Precipitation  
Precipitation 0.00 in - - ()
Sea Level Pressure  
Sea Level Pressure 29.81 in    
Wind  
Wind Speed 9 mph (NW)    
Max Wind Speed 14 mph    
Max Gust Speed -    
Visibility 10 miles    
Events      
Averages and records for this station are not official NWS values.
T = Trace of Precipitation, MM = Missing Value Source: NWS Daily Summary

Daily Weather History Graph

Daily Weather History Graph

Search for Another Location

Airport:

Trip Planner

Search our weather history database for the weather conditions in past years. The results will help you decide how hot, cold, wet, or windy it might be!

Date:

Astronomy

Aug. 27, 2013 Rise Set
Actual Time 6:27 AM PDT 7:34 PM PDT
Civil Twilight 6:01 AM PDT 8:00 PM PDT
Nautical Twilight 5:29 AM PDT 8:32 PM PDT
Astronomical Twilight 4:56 AM PDT 9:04 PM PDT
Moon 11:44 PM PDT (8/27) 1:17 PM PDT (8/27)
Length of Visible Light 13h 59m
Length of Day
13h 06m
Waning Gibbous, 56% of the Moon is Illuminated
Aug 27
Waning Gibbous
Aug 28
Last Quarter
Sep 5
New
Sep 12
First Quarter
Sep 19
Full

Hourly Weather History & Observations

Time (PDT) Temp. Heat Index Dew Point Humidity Pressure Visibility Wind Dir Wind Speed Gust Speed Precip Events Conditions
12:56 AM 75.9 °F - 54.0 °F 46% 29.86 in 10.0 mi NW 12.7 mph - N/A   Clear
1:56 AM 75.0 °F - 53.1 °F 46% 29.86 in 10.0 mi NNW 9.2 mph - N/A   Scattered Clouds
2:56 AM 73.0 °F - 54.0 °F 51% 29.85 in 10.0 mi NNW 9.2 mph - N/A   Scattered Clouds
3:56 AM 72.0 °F - 52.0 °F 49% 29.85 in 10.0 mi NNW 10.4 mph - N/A   Clear
4:56 AM 69.1 °F - 53.1 °F 57% 29.84 in 10.0 mi NW 6.9 mph - N/A   Clear
5:56 AM 66.0 °F - 52.0 °F 60% 29.86 in 10.0 mi West 5.8 mph - N/A   Clear
6:56 AM 66.0 °F - 51.1 °F 59% 29.86 in 9.0 mi SW 4.6 mph - N/A   Clear
7:11 AM 66.2 °F - 51.8 °F 60% 29.86 in 10.0 mi WSW 5.8 mph - N/A   Scattered Clouds
7:56 AM 72.0 °F - 53.1 °F 51% 29.87 in 10.0 mi West 4.6 mph - N/A   Scattered Clouds
8:56 AM 77.0 °F - 52.0 °F 42% 29.86 in 10.0 mi NW 9.2 mph - N/A   Scattered Clouds
9:56 AM 81.0 °F 80.4 °F 53.1 °F 38% 29.86 in 10.0 mi NW 8.1 mph - N/A   Scattered Clouds
10:56 AM 84.0 °F - 51.1 °F 32% 29.86 in 10.0 mi Variable 4.6 mph - N/A   Scattered Clouds
11:56 AM 87.1 °F - 52.0 °F 30% 29.84 in 10.0 mi WNW 5.8 mph - N/A   Scattered Clouds
12:56 PM 91.0 °F - 52.0 °F 26% 29.82 in 10.0 mi Calm Calm - N/A   Scattered Clouds
1:56 PM 93.9 °F 91.4 °F 53.1 °F 25% 29.80 in 10.0 mi Variable 4.6 mph - N/A   Scattered Clouds
2:56 PM 97.0 °F 94.6 °F 54.0 °F 23% 29.77 in 10.0 mi Variable 6.9 mph - N/A   Scattered Clouds
3:56 PM 97.0 °F 95.0 °F 55.0 °F 24% 29.75 in 10.0 mi NNE 6.9 mph - N/A   Scattered Clouds
4:56 PM 98.1 °F 96.4 °F 55.9 °F 24% 29.73 in 10.0 mi North 8.1 mph - N/A   Scattered Clouds
5:56 PM 97.0 °F 95.3 °F 55.9 °F 25% 29.73 in 10.0 mi North 6.9 mph - N/A   Scattered Clouds
6:56 PM 95.0 °F 93.0 °F 55.0 °F 26% 29.73 in 10.0 mi North 6.9 mph - N/A   Scattered Clouds
7:56 PM 89.1 °F 87.1 °F 55.0 °F 31% 29.74 in 10.0 mi NW 8.1 mph - N/A   Scattered Clouds
8:56 PM 90.0 °F 87.9 °F 55.0 °F 30% 29.75 in 10.0 mi NW 11.5 mph - N/A   Scattered Clouds
9:56 PM 86.0 °F 84.5 °F 55.0 °F 35% 29.78 in 10.0 mi NW 12.7 mph - N/A   Scattered Clouds
10:56 PM 82.9 °F 82.0 °F 55.0 °F 38% 29.78 in 10.0 mi NW 12.7 mph - N/A   Partly Cloudy
11:56 PM 80.1 °F - 52.0 °F 38% 29.79 in 10.0 mi NNW 13.8 mph - N/A   Partly Cloudy